Weather History for Corning, AR

Change the Weather History Date:

Tuesday, December 18, 2012

  Actual Average (KARG) Record (KARG)
Temperature  
Mean Temperature 44 °F -  
Max Temperature 57 °F 43 °F 62 °F (2002)
Min Temperature 32 °F 28 °F 19 °F (1996)
Degree Days  
Heating Degree Days 20    
Moisture  
Dew Point 39 °F    
Average Humidity 84    
Maximum Humidity 100    
Minimum Humidity 59    
Precipitation  
Precipitation 0.00 in - - ()
Sea Level Pressure  
Sea Level Pressure 29.86 in    
Wind  
Wind Speed 6 mph (South)    
Max Wind Speed 18 mph    
Max Gust Speed 23 mph    
Visibility 7 miles    
Events      
Averages and records for this station are not official NWS values.
T = Trace of Precipitation, MM = Missing Value Source: NWS Daily Summary

Daily Weather History Graph

Daily Weather History Graph

Search for Another Location

Airport:

Trip Planner

Search our weather history database for the weather conditions in past years. The results will help you decide how hot, cold, wet, or windy it might be!

Date:

Astronomy

Dec. 18, 2012 Rise Set
Actual Time 7:09 AM CST 4:49 PM CST
Civil Twilight 6:40 AM CST 5:18 PM CST
Nautical Twilight 6:08 AM CST 5:50 PM CST
Astronomical Twilight 5:36 AM CST 6:22 PM CST
Moon 10:58 AM CST (12/18) 11:06 PM CST (12/18)
Length of Visible Light 10h 38m
Length of Day
9h 40m
Waxing Crescent, 35% of the Moon is Illuminated
Dec 18
Waxing Crescent
Dec 19
First Quarter
Dec 28
Full
Jan 4
Last Quarter
Jan 11
New

Hourly Weather History & Observations

Time (CST) Temp. Windchill Dew Point Humidity Pressure Visibility Wind Dir Wind Speed Gust Speed Precip Events Conditions
12:15 AM 35.6 °F 29.2 °F 33.8 °F 93% 29.87 in 8.0 mi WSW 8.1 mph - N/A   Unknown
12:35 AM 35.6 °F 32.8 °F 35.6 °F 100% 29.86 in 8.0 mi WSW 3.5 mph - N/A   Unknown
12:55 AM 35.6 °F - 33.8 °F 93% 29.85 in 7.0 mi Calm Calm - N/A   Unknown
1:15 AM 35.6 °F 31.7 °F 35.6 °F 100% 29.86 in 6.0 mi West 4.6 mph - N/A   Mist
1:35 AM 35.6 °F 32.8 °F 33.8 °F 93% 29.86 in 6.0 mi West 3.5 mph - N/A   Mist
1:55 AM 33.8 °F - 32.0 °F 93% 29.87 in 5.0 mi Calm Calm - N/A   Mist
2:15 AM 35.6 °F - 35.6 °F 100% 29.87 in 5.0 mi Calm Calm - N/A   Mist
2:35 AM 35.6 °F - 33.8 °F 93% 29.87 in 5.0 mi Calm Calm - N/A   Mist
2:55 AM 33.8 °F - 32.0 °F 93% 29.88 in 5.0 mi Calm Calm - N/A   Mist
3:15 AM 33.8 °F - 33.8 °F 100% 29.87 in 4.0 mi Calm Calm - N/A   Mist
3:35 AM 32.0 °F - 32.0 °F 100% 29.87 in 4.0 mi Calm Calm - N/A   Mist
3:55 AM 32.0 °F - 32.0 °F 100% 29.87 in 3.0 mi Calm Calm - N/A   Mist
4:15 AM 32.0 °F 28.7 °F 32.0 °F 100% 29.88 in 4.0 mi SSW 3.5 mph - N/A   Mist
4:35 AM 32.0 °F 28.7 °F 32.0 °F 100% 29.87 in 3.0 mi SSE 3.5 mph - N/A   Mist
4:55 AM 32.0 °F 27.5 °F 32.0 °F 100% 29.86 in 3.0 mi SE 4.6 mph - N/A   Mist
5:15 AM 32.0 °F 27.5 °F 32.0 °F 100% 29.87 in 2.5 mi SSE 4.6 mph - N/A   Mist
5:35 AM 32.0 °F 26.4 °F 32.0 °F 100% 29.86 in 2.5 mi SE 5.8 mph - N/A   Mist
5:55 AM 32.0 °F 27.5 °F 32.0 °F 100% 29.87 in 2.5 mi SSE 4.6 mph - N/A   Mist
6:15 AM 32.0 °F 27.5 °F 32.0 °F 100% 29.87 in 2.0 mi SSE 4.6 mph - N/A   Mist
6:35 AM 32.0 °F 28.7 °F 32.0 °F 100% 29.87 in 1.8 mi SSE 3.5 mph - N/A   Mist
6:55 AM 32.0 °F 28.7 °F 32.0 °F 100% 29.87 in 2.0 mi SSE 3.5 mph - N/A   Mist
7:15 AM 32.0 °F 27.5 °F 32.0 °F 100% 29.88 in 1.5 mi SE 4.6 mph - N/A   Mist
7:35 AM 32.0 °F 27.5 °F 32.0 °F 100% 29.88 in 1.8 mi SE 4.6 mph - N/A   Mist
7:55 AM 33.8 °F 30.8 °F 33.8 °F 100% 29.88 in 2.0 mi SSE 3.5 mph - N/A   Mist
8:15 AM 33.8 °F - 33.8 °F 100% 29.88 in 1.2 mi Calm Calm - N/A   Mist
8:35 AM 35.6 °F - 35.6 °F 100% 29.89 in 2.5 mi Calm Calm - N/A   Mist
8:55 AM 37.4 °F 33.8 °F 37.4 °F 100% 29.89 in 3.0 mi SSW 4.6 mph - N/A   Mist
9:15 AM 39.2 °F 35.9 °F 39.2 °F 100% 29.89 in 5.0 mi South 4.6 mph - N/A   Mist
9:35 AM 42.8 °F 39.3 °F 39.2 °F 87% 29.89 in 5.0 mi South 5.8 mph - N/A   Mist
9:55 AM 44.6 °F 40.2 °F 39.2 °F 81% 29.89 in 7.0 mi South 8.1 mph - N/A   Unknown
10:15 AM 46.4 °F 41.1 °F 41.0 °F 81% 29.89 in 7.0 mi South 11.5 mph 16.1 mph N/A   Unknown
10:35 AM 48.2 °F - 41.0 °F 76% 29.89 in 9.0 mi South 11.5 mph - N/A   Unknown
10:55 AM 50.0 °F - 42.8 °F 76% 29.88 in 9.0 mi SSW 10.4 mph - N/A   Unknown
11:15 AM 51.8 °F - 41.0 °F 67% 29.87 in 10.0 mi SSW 13.8 mph - N/A   Unknown
11:35 AM 53.6 °F - 41.0 °F 62% 29.86 in 10.0 mi South 12.7 mph - N/A   Unknown
11:55 AM 53.6 °F - 41.0 °F 62% 29.84 in 10.0 mi South 11.5 mph - N/A   Unknown
12:15 PM 55.4 °F - 42.8 °F 63% 29.83 in 9.0 mi South 12.7 mph 17.3 mph N/A   Unknown
12:35 PM 57.2 °F - 42.8 °F 59% 29.82 in 10.0 mi South 18.4 mph 23.0 mph N/A   Unknown
12:55 PM 57.2 °F - 42.8 °F 59% 29.82 in 10.0 mi SSW 17.3 mph - N/A   Unknown
1:15 PM 57.2 °F - 44.6 °F 63% 29.81 in 10.0 mi SSW 16.1 mph 21.9 mph N/A   Unknown
1:55 PM 57.2 °F - 44.6 °F 63% 29.81 in 10.0 mi SSW 17.3 mph - N/A   Unknown
2:15 PM 57.2 °F - 44.6 °F 63% 29.80 in 10.0 mi SSW 17.3 mph - N/A   Unknown
2:35 PM 57.2 °F - 44.6 °F 63% 29.80 in 10.0 mi SSW 15.0 mph - N/A   Unknown
2:55 PM 57.2 °F - 44.6 °F 63% 29.80 in 10.0 mi SSW 13.8 mph - N/A   Unknown
3:15 PM 57.2 °F - 44.6 °F 63% 29.80 in 10.0 mi SSW 12.7 mph 16.1 mph N/A   Unknown
3:35 PM 57.2 °F - 44.6 °F 63% 29.80 in 10.0 mi SSW 10.4 mph - N/A   Unknown
3:55 PM 57.2 °F - 44.6 °F 63% 29.80 in 10.0 mi South 10.4 mph - N/A   Unknown
4:15 PM 55.4 °F - 44.6 °F 67% 29.80 in 10.0 mi SSW 10.4 mph - N/A   Unknown
4:35 PM 53.6 °F - 44.6 °F 72% 29.80 in 10.0 mi SSW 9.2 mph - N/A   Unknown
4:55 PM 51.8 °F - 44.6 °F 76% 29.81 in 10.0 mi South 6.9 mph - N/A   Unknown
5:15 PM 53.6 °F - 42.8 °F 67% 29.82 in 10.0 mi South 6.9 mph - N/A   Unknown
5:35 PM 50.0 °F - 44.6 °F 82% 29.82 in 10.0 mi South 6.9 mph - N/A   Unknown
5:55 PM 51.8 °F - 42.8 °F 71% 29.83 in 10.0 mi South 6.9 mph - N/A   Unknown
6:15 PM 50.0 °F - 42.8 °F 76% 29.83 in 10.0 mi SSE 5.8 mph - N/A   Unknown
6:35 PM 46.4 °F 42.9 °F 42.8 °F 87% 29.84 in 10.0 mi SSE 6.9 mph - N/A   Unknown
6:55 PM 48.2 °F - 42.8 °F 82% 29.84 in 10.0 mi South 8.1 mph - N/A   Unknown
7:15 PM 50.0 °F - 42.8 °F 76% 29.85 in 10.0 mi South 8.1 mph - N/A   Unknown
7:35 PM 48.2 °F - 41.0 °F 76% 29.86 in 10.0 mi South 6.9 mph - N/A   Unknown
7:55 PM 50.0 °F - 41.0 °F 71% 29.86 in 10.0 mi South 8.1 mph - N/A   Unknown
8:15 PM 50.0 °F - 41.0 °F 71% 29.86 in 10.0 mi South 8.1 mph - N/A   Unknown
8:55 PM 46.4 °F 44.3 °F 41.0 °F 81% 29.87 in 10.0 mi SSE 4.6 mph - N/A   Unknown
9:15 PM 46.4 °F 45.2 °F 41.0 °F 81% 29.87 in 10.0 mi South 3.5 mph - N/A   Unknown
9:35 PM 44.6 °F - 41.0 °F 87% 29.87 in 10.0 mi Calm Calm - N/A   Unknown
9:55 PM 44.6 °F - 41.0 °F 87% 29.88 in 10.0 mi Calm Calm - N/A   Unknown
10:15 PM 44.6 °F - 41.0 °F 87% 29.88 in 10.0 mi Calm Calm - N/A   Unknown
10:35 PM 44.6 °F - 41.0 °F 87% 29.88 in 10.0 mi Calm Calm - N/A   Unknown
10:55 PM 42.8 °F - 41.0 °F 93% 29.88 in 10.0 mi Calm Calm - N/A   Unknown
11:15 PM 41.0 °F 38.0 °F 41.0 °F 100% 29.89 in 10.0 mi North 4.6 mph - N/A   Unknown
11:35 PM 41.0 °F 39.0 °F 41.0 °F 100% 29.89 in 10.0 mi North 3.5 mph - N/A   Unknown
11:55 PM 41.0 °F 37.1 °F 41.0 °F 100% 29.89 in 9.0 mi NNE 5.8 mph - N/A   Unknown